Theta_e
318 317 318 319 319 318 320 322 322 322 318 316 317 315 315 313 313 316 317 317 317 317 317 316 316 316 317 318 320 325 328 329 330 330 329 329 330 331 332 332 331 332 332 330
321 319 319 321 319 315 315 315 316 316 315 313 314 313 314 316 318 319 318 316 315 314 314 315 314 315 316 318 319 318 320 327 329 330 330 330 330 329 329 330 330 330 330 328
323 321 320 323 320 316 316 316 316 318 317 313 316 318 317 318 316 317 312 311 310 310 311 312 312 313 314 316 319 320 320 322 325 329 330 331 331 331 331 331 329 328 327 324
324 319 324 321 318 318 319 317 316 316 316 317 318 315 313 312 313 311 310 310 309 307 309 311 312 312 312 312 312 313 314 315 316 318 322 326 327 327 327 326 325 323 323 321
323 319 319 319 318 317 317 317 316 315 318 320 319 315 315 312 311 311 310 309 308 308 309 309 309 310 311 312 311 311 311 312 314 315 316 318 319 319 320 319 319 318 316 314
315 322 327 319 317 316 316 318 315 317 319 319 317 320 317 314 313 312 311 311 311 312 310 309 309 310 310 309 309 309 309 310 311 312 312 313 314 314 314 314 314 312 309 308
313 316 314 314 317 316 319 317 320 319 317 316 318 315 313 313 313 312 311 311 311 311 311 309 308 308 308 307 305 306 307 308 309 309 309 309 310 311 310 310 309 307 306 305
315 315 318 313 318 317 316 317 316 315 314 313 312 312 313 313 312 311 310 311 309 310 309 307 307 306 305 304 305 306 306 306 306 306 306 306 307 306 306 306 305 303 303 302
318 317 314 314 316 313 315 315 313 311 310 311 312 312 311 312 311 310 310 309 308 308 306 304 301 300 300 300 303 303 303 302 302 302 303 303 303 303 303 302 300 297 297 296
317 318 314 311 310 310 310 311 311 310 310 311 312 312 312 310 309 309 307 305 303 301 300 297 296 296 296 298 301 301 301 300 300 299 299 299 299 299 298 298 296 295 294 293
317 314 312 311 310 310 310 310 310 310 310 310 310 311 310 309 309 304 300 299 298 297 296 295 295 294 295 296 298 298 297 296 297 297 296 295 295 295 296 296 296 296 296 296
319 314 315 312 308 306 306 307 308 309 310 309 310 310 310 303 299 298 297 296 295 294 294 294 294 293 294 294 294 294 294 293 294 293 293 293 293 294 295 295 295 294 294 294
313 311 310 310 307 306 307 305 306 306 307 308 301 303 302 296 296 295 295 295 295 294 293 292 291 290 291 291 292 292 291 292 292 292 291 291 291 291 291 291 293 293 293 293
310 310 310 309 308 307 306 305 304 301 298 298 296 295 294 295 294 294 294 294 293 293 291 290 288 287 287 288 289 289 289 289 289 289 291 291 289 288 289 288 289 290 292 292
307 302 303 304 303 301 302 300 298 297 295 295 294 294 294 294 293 292 292 292 289 288 287 287 286 286 286 288 288 288 288 288 288 288 288 288 288 288 288 290 290 290 291 292
302 301 301 300 299 298 298 297 295 294 294 294 293 293 293 292 290 289 288 287 287 286 285 284 284 285 285 286 286 287 287 287 287 287 287 287 287 288 289 289 289 289 290 290
302 301 298 299 298 298 297 297 296 295 294 293 292 292 291 289 288 287 286 285 285 284 284 284 283 283 284 284 286 287 288 288 287 287 287 287 287 287 286 286 286 287 288 289
298 298 297 297 297 296 295 294 292 292 291 290 289 288 288 287 287 286 285 284 284 284 284 283 282 282 282 282 282 282 283 285 286 287 287 287 287 286 285 286 285 284 284 286
297 297 297 296 295 293 292 291 290 289 288 287 285 284 283 283 284 283 282 282 281 282 282 281 280 280 280 279 279 280 279 280 281 283 285 286 286 286 285 285 285 284 284 284
294 294 293 292 291 291 290 288 287 285 284 282 281 282 283 283 284 283 282 280 279 279 279 278 278 278 279 279 280 280 280 280 279 279 281 282 283 284 284 284 283 283 282 283
292 291 290 290 289 288 287 287 284 283 282 283 282 281 280 281 282 282 281 279 278 277 277 277 277 278 278 279 279 279 279 278 278 278 279 279 280 282 282 281 282 282 282 283
291 290 289 288 288 287 286 286 284 283 282 281 280 281 280 279 279 278 277 277 276 276 276 276 276 276 277 277 277 277 276 276 276 277 277 278 278 279 279 279 280 280 280 281
290 289 288 288 287 285 282 282 282 282 280 280 280 279 278 278 277 276 276 276 276 275 275 275 275 275 275 275 275 274 274 274 274 274 274 274 274 275 275 275 275 276 275 276
289 289 287 286 283 281 280 279 279 279 279 278 278 277 277 276 276 276 276 275 275 274 274 274 274 273 273 273 273 272 272 271 272 272 272 272 272 273 273 273 273 274 274 274
288 287 285 284 283 281 281 280 280 279 278 277 277 276 276 276 275 274 274 274 273 273 273 273 272 272 272 271 271 270 270 270 270 270 270 270 270 270 271 271 271 271 272 272
287 285 285 284 283 282 281 281 279 278 277 276 276 276 275 275 274 274 273 273 272 272 272 272 271 271 271 270 270 270 269 269 269 269 269 269 269 269 269 269 269 269 270 270
285 285 284 283 283 283 282 281 279 278 277 276 275 275 274 274 273 273 272 272 271 271 271 271 271 270 270 270 269 269 269 268 268 268 268 268 268 268 268 268 268 268 268 268
Wind_Speed
7 6 4 4 10 11 12 19 8 10 8 7 9 6 5 4 6 7 8 9 10 11 12 17 21 25 27 24 21 17 22 26 33 33 32 33 39 40 37 33 29 27 26 27
5 7 7 4 5 8 5 4 4 4 6 8 4 4 3 5 5 6 7 8 9 10 12 13 19 21 25 26 23 17 16 17 18 19 23 29 34 32 31 28 24 24 27 29
5 1 5 2 11 8 6 4 8 7 8 6 4 1 2 3 6 6 6 6 8 9 9 14 19 23 24 26 27 24 19 17 16 16 18 21 25 26 27 27 27 28 28 30
8 2 3 8 2 9 13 5 8 4 3 3 3 5 6 4 3 2 4 5 6 6 12 19 23 24 23 29 30 29 28 26 24 21 18 16 18 20 22 22 25 26 27 30
6 7 5 5 3 7 7 8 7 8 4 4 5 6 3 3 2 1 4 5 7 16 16 21 26 28 28 30 30 30 30 29 27 25 24 21 19 18 17 18 19 20 21 22
3 6 17 2 8 7 5 6 9 9 8 7 7 4 3 4 1 2 5 9 12 19 18 22 28 29 28 27 27 27 28 27 25 24 23 23 23 21 21 20 18 15 14 16
2 4 6 6 4 5 6 6 3 5 6 7 5 4 5 3 2 3 4 8 17 18 18 22 25 25 24 26 25 27 26 26 25 24 23 21 20 19 18 14 11 11 15 18
3 1 10 7 1 9 4 3 4 5 4 7 6 5 3 4 4 3 3 7 13 12 16 22 22 21 20 21 24 23 22 21 24 23 22 21 20 18 10 6 10 13 18 22
8 6 1 4 2 2 3 5 4 7 6 6 5 4 4 4 4 6 6 8 11 11 14 17 20 21 17 21 22 22 21 22 22 20 19 19 18 16 9 2 5 11 16 16
4 2 4 5 6 6 7 10 8 7 6 4 3 2 1 2 2 1 5 10 14 14 14 15 19 20 22 24 21 20 20 20 20 20 20 21 23 20 16 16 19 19 18 15
1 6 10 3 4 6 7 7 7 4 3 3 3 1 2 2 4 5 9 13 16 14 13 14 16 20 23 26 23 19 17 18 18 18 19 19 22 23 21 19 17 15 13 10
8 12 5 6 9 7 7 5 7 5 2 2 2 4 4 5 8 10 10 12 13 14 12 11 13 16 18 19 21 20 18 17 18 17 17 17 16 14 11 10 10 8 5 5
5 4 4 10 10 5 5 7 5 5 3 3 5 3 6 5 9 11 11 11 11 10 9 12 15 18 19 19 17 15 13 14 15 15 15 13 14 13 11 14 9 7 7 9
10 10 6 5 5 8 4 4 6 7 11 10 12 14 14 12 11 11 11 10 10 11 13 14 14 16 18 17 16 16 15 15 14 14 14 14 14 12 12 12 13 15 16 13
6 7 5 5 6 7 6 11 11 9 9 10 12 13 12 10 10 10 9 9 12 13 13 12 12 14 16 17 17 17 16 16 16 15 15 14 14 13 13 13 14 15 18 16
8 9 10 12 10 9 10 10 12 10 10 9 9 11 13 14 14 13 14 15 12 11 10 11 14 17 17 17 15 16 17 14 14 13 15 13 13 14 13 13 13 14 15 16
14 7 7 8 9 9 11 9 10 9 8 7 10 12 13 14 13 12 12 11 12 12 13 16 17 19 21 22 19 17 16 15 15 16 15 15 14 11 12 13 12 13 14 17
10 9 9 12 10 10 10 9 10 11 7 11 14 15 13 10 8 10 11 12 15 16 18 17 18 19 21 23 22 21 20 19 18 17 16 15 14 13 12 12 11 12 16 17
11 14 13 12 12 10 9 8 11 13 13 13 14 12 11 10 11 12 13 19 19 13 17 18 19 21 24 25 25 24 22 22 20 16 16 15 15 14 13 13 14 14 12 14
12 13 16 15 17 16 11 15 16 14 12 15 15 14 13 13 11 11 13 17 13 12 14 19 22 24 24 24 23 22 20 20 19 18 16 17 17 15 14 14 15 17 13 13
12 11 11 13 14 18 17 17 19 16 15 16 16 16 17 15 13 9 11 9 14 17 18 19 21 20 20 21 22 22 20 19 15 14 14 15 17 16 12 14 17 17 15 15
10 11 12 16 16 15 16 16 16 15 17 19 16 14 14 13 12 14 16 12 14 16 17 18 19 19 19 18 19 19 19 18 19 18 17 15 15 14 12 13 15 15 16 15
14 16 16 15 15 15 17 18 20 21 20 18 17 16 14 12 12 11 7 12 14 15 15 17 17 18 19 19 19 20 21 21 20 19 19 18 17 16 16 15 16 16 16 15
15 17 16 18 21 18 12 14 18 20 20 17 16 13 11 11 14 12 9 9 11 12 15 16 16 17 18 19 20 20 21 21 20 19 19 18 18 18 18 18 18 18 18 19
16 17 16 17 13 11 17 18 18 17 17 15 14 13 13 12 10 9 10 11 12 14 15 15 16 17 18 19 20 21 21 21 20 20 20 19 19 19 18 18 19 19 19 20
16 12 13 14 17 18 18 17 12 15 16 16 13 12 11 11 10 10 11 11 12 13 14 15 16 17 18 19 19 20 20 21 21 21 20 20 20 20 20 20 20 20 19 19
16 19 16 14 16 18 19 18 18 15 13 14 15 11 10 9 10 10 10 11 12 12 13 14 15 16 16 17 19 19 20 20 20 20 21 21 21 20 20 20 20 21 22 22
Wind_Direction
235 222 207 220 207 172 193 223 189 238 216 212 222 242 270 302 316 338 343 349 350 347 337 337 341 333 330 321 312 287 267 258 258 262 259 255 255 251 247 245 244 245 244 240
253 221 245 239 196 218 120 147 248 203 261 218 239 256 290 308 348 355 352 352 350 348 347 350 353 350 359 360 349 336 318 287 282 282 268 260 260 252 254 253 248 246 242 240
252 155 125 318 231 169 196 185 161 200 227 167 173 219 328 9 20 357 2 351 342 342 334 339 357 4 8 21 28 31 23 4 341 321 296 276 265 262 258 252 250 244 240 237
241 73 229 247 222 219 211 194 213 135 156 136 166 83 86 63 82 25 338 342 341 332 333 355 6 11 11 18 17 17 17 11 6 356 335 310 293 284 276 267 255 248 242 237
180 201 301 250 202 148 164 240 201 199 164 140 131 122 91 142 147 89 5 351 342 349 353 2 1 2 5 10 10 12 10 4 360 355 344 336 325 311 297 281 269 258 248 238
116 186 236 119 194 145 101 265 197 187 159 155 146 151 206 154 126 15 7 351 350 349 348 1 358 357 2 4 8 7 1 357 356 355 352 346 339 332 319 304 281 252 225 212
141 233 276 251 211 128 152 249 134 139 146 142 150 161 138 120 87 62 24 3 358 356 5 3 1 355 1 4 360 351 349 347 349 350 348 344 338 332 322 299 261 214 195 179
101 227 258 197 10 167 181 57 138 108 91 92 84 64 56 36 22 18 12 13 33 342 11 2 3 4 4 3 350 349 350 351 349 349 350 348 345 337 320 254 203 180 163 148
180 217 262 26 101 62 157 133 112 108 97 97 82 45 359 349 5 343 354 11 15 4 7 23 22 21 16 0 3 2 9 11 7 2 6 7 1 355 350 353 127 81 80 77
118 174 108 90 73 69 94 113 115 106 109 109 120 73 17 358 329 326 349 32 34 40 39 27 25 25 23 18 20 25 31 31 30 31 33 44 48 46 53 69 62 61 54 37
77 101 94 78 135 150 105 94 99 108 121 149 155 129 247 277 335 31 37 44 50 51 44 29 21 22 18 18 20 28 32 29 36 44 45 42 50 45 47 45 36 24 357 335
226 170 165 156 161 152 130 158 168 142 183 236 181 241 254 62 60 60 52 47 51 51 44 35 31 28 22 21 25 33 41 41 43 37 33 30 23 14 16 351 338 337 357 329
163 121 87 145 154 161 186 193 162 176 224 263 44 46 98 95 79 78 71 61 57 53 48 40 32 26 20 18 24 29 31 34 33 28 27 28 26 19 2 359 2 359 348 328
124 118 97 176 190 190 185 118 103 91 71 78 94 82 90 97 88 76 65 60 53 46 37 30 26 18 14 17 18 21 23 24 20 13 10 9 7 359 355 355 347 340 347 340
153 76 116 119 84 61 86 108 91 81 84 83 84 94 94 92 81 69 59 63 61 50 36 30 23 15 20 21 22 22 20 15 11 11 10 7 4 359 359 356 352 346 352 349
92 92 85 88 84 75 86 81 101 103 101 96 88 86 89 90 84 68 55 54 56 44 32 27 25 11 11 10 9 17 16 9 8 2 3 2 1 4 357 356 358 352 346 350
118 110 100 90 93 93 98 95 100 97 93 90 93 99 93 86 75 66 61 61 66 55 43 38 29 23 23 22 20 10 358 359 358 354 353 350 352 356 355 355 351 347 342 353
93 98 107 123 124 111 95 91 95 93 91 98 96 89 79 79 84 76 66 70 72 59 39 25 15 6 6 5 2 358 353 349 344 339 334 329 335 343 346 341 339 335 337 339
102 111 112 111 111 108 103 97 95 97 97 101 93 89 87 82 81 80 66 55 40 31 12 4 359 355 354 352 347 342 337 334 333 328 328 331 327 324 331 333 337 339 322 325
96 94 100 101 104 107 104 103 100 99 115 114 102 87 79 82 95 96 70 68 42 15 360 1 1 2 358 355 351 348 344 339 334 325 319 316 320 318 321 322 333 341 331 323
114 112 105 104 100 99 102 110 111 96 101 105 94 86 83 79 73 73 52 49 19 14 11 10 12 7 6 6 12 12 7 358 344 335 331 328 327 326 323 322 335 336 326 316
121 116 111 108 104 100 101 111 119 114 105 98 98 100 89 69 68 70 57 46 23 18 20 20 16 12 9 7 11 14 18 16 12 8 1 352 348 349 348 343 342 338 334 323
121 121 116 115 115 105 111 114 119 115 107 100 92 83 79 71 54 50 39 27 28 23 25 24 17 14 13 17 21 23 24 22 21 21 22 23 26 27 27 26 26 24 25 30
122 120 110 112 119 120 113 113 107 106 101 94 90 82 77 81 68 59 58 47 38 32 31 26 21 20 21 24 26 28 28 26 25 25 26 30 31 32 34 34 37 41 45 50
115 116 125 130 123 116 122 124 117 115 108 99 91 82 75 74 85 78 60 50 41 37 35 31 29 29 31 33 34 36 34 31 29 31 33 34 35 37 39 42 44 47 50 51
122 126 133 134 137 141 142 141 127 132 125 110 98 93 89 83 77 65 53 49 45 41 39 36 36 36 38 39 40 40 39 38 38 39 40 41 43 45 47 48 50 51 54 57
116 125 120 117 146 156 161 155 141 145 141 130 124 116 97 82 74 68 59 53 50 47 42 39 40 41 41 42 44 44 44 44 44 44 46 47 49 50 53 56 59 61 62 61